Regional Weather Roundup
Issued by NWS Wakefield, VA

Home | Current Version | Previous Version | Graphics & Text | Print | Product List | Glossary On
Versions: 1 2 3 4 5 6 7 8 9 10 11 12 13 14 15 16 17 18 19 20 21 22 23 24 25 26 27 28 29 30 31 32 33 34 35 36 37 38 39 40 41 42 43 44 45 46 47 48 49 50
000
ASUS41 KAKQ 040915
RWRAKQ

REGIONAL WEATHER ROUNDUP
NATIONAL WEATHER SERVICE WAKEFIELD VA
500 AM EDT TUE AUG 04 2015

Note: "fair" indicates few or no clouds below 12,000 feet with no
significant weather and/or obstructions to visibility. * = Denotes
station may not report precipitation (e.g., rain,snow,etc.),
thunder or fog.

VAZ042-051-052>054-056-041000-
NORTHERN VIRGINIA

CITY           SKY/WX    TMP DP  RH WIND       PRES   REMARKS
WASH NATIONAL  CLOUDY    80  68  66 SW5       29.88R
DULLES         CLOUDY    72  60  66 N14G28    29.91R THUNDER
FORT BELVOIR   MOCLDY    73  68  84 CALM      29.88R
QUANTICO       NOT AVBL
FREDERICKSBRG* MOCLDY    76  70  80 S3        29.87S
STAFFORD*      MOCLDY    74  67  77 CALM      29.91F
WARRENTON      MOCLDY    72  68  87 CALM      29.87S
CULPEPER*      CLOUDY    69  66  90 CALM      29.89R
MANASSAS*      CLOUDY    72  68  88 N5        29.88S
LEESBURG*      CLOUDY    68  66  94 NW6       29.91F
WINCHESTER     CLOUDY    70  68  94 CALM      29.91S
FRONT ROYAL*   FAIR      70  63  78 NE5       29.90R
LURAY*         FAIR      70  63  78 SE6       29.91R
$$

VAZ048-049-060>072-079>083-041000-
CENTRAL AND SOUTH CENTRAL VIRGINIA

CITY           SKY/WX    TMP DP  RH WIND       PRES   REMARKS
RICHMOND       CLOUDY    77  70  79 S9        29.92R
CHESTERFIELD*  FAIR      75  61  60 SW9       29.93R
PETERSBURG*    MOCLDY    75  74  98 S3        29.94S
HANOVER        MOCLDY    77  70  79 S10       29.92R
TAPPAHANNOCK*  MOCLDY    76  69  80 CALM      29.92R
QUINTON*       FAIR      76  71  85 SW5       29.92R
CHARLOTTSVILLE PTCLDY    71  65  81 S7        29.90R
GORDONSVILLE*  FAIR      70  64  83 SW3       29.90R
ORANGE*        MOCLDY    72  66  83 S7        29.90S
LOUISA*        PTCLDY    73  66  78 S6        29.89S
BUMPASS*       FAIR      71  68  90 SW3       29.89S
FARMVILLE*     PTCLDY    74  69  83 SW5       29.91S
CREWE*         FAIR     N/A N/A N/A SW5       29.93S
FORT PICKETT*  FAIR      73  69  89 SW8       29.94S
CHASE CITY*    FAIR      75  73  95 CALM      29.96R
CLARKSVILLE*   FAIR      72  68  88 S6        29.96R
SOUTH HILL*    PTCLDY    71  69  96 CALM      30.02R
LAWRENCEVILLE* FAIR      73  72  94 S5        29.96R
EMPORIA*       PTCLDY    72  70  94 CALM      29.97R
$$

VAZ088>098-041000-
SOUTHEAST VIRGINIA

CITY           SKY/WX    TMP DP  RH WIND       PRES   REMARKS
NORFOLK        PTCLDY    76  72  87 S13       29.94R
VIRGINIA BEACH MOCLDY    79  73  82 SW15G23   29.94R
NORFOLK NAVAL  PTCLDY    76  72  87 SW8       29.96R
WEST POINT*    MOCLDY    79  72  77 SW6       29.93S
SALUDA*        FAIR      76  72  86 SW9       29.91R
NEWPORT NEWS   CLEAR     76  72  87 SW13      29.94R
LANGLEY AFB    CLEAR     76  73  88 SW12      29.94R
FORT EUSTIS    CLEAR     76  76 100 SW10G17   29.92R
WILLIAMSBURG*  PTCLDY    79  73  83 SW8       29.95R
HR EXEC AP*    FAIR      73  70  88 SW8       29.97R
FRANKLIN*      PTCLDY    74  72  95 S6        29.95S
WAKEFIELD      MOCLDY    75  71  87 SW3       29.95R
$$

VAZ020-022-025-037-045-041000-
WEST CENTRAL AND SOUTHWEST VIRGINIA

CITY           SKY/WX    TMP DP  RH WIND       PRES   REMARKS
STAUNTON*      PTCLDY    70  63  78 CALM      29.96R
WAYNESBORO*    FAIR      74  60  61 W8        29.96R
HOT SPRINGS VA PTCLDY    68  51  55 W15G23    30.06S
LYNCHBURG      MOCLDY    68  64  87 S3        29.95S
DANVILLE       MOCLDY    72  69  90 S5        29.96S
SOUTH BOSTON*  FAIR      71  69  93 S5        29.95S
MARTINSVILLE   PTCLDY    66  66 100 CALM      29.99S
ROANOKE        MOCLDY    75  60  59 SE3       29.95F
BLACKSBURG     MOCLDY    69  63  80 W3        30.04R
DUBLIN*          N/A     70  62  78 CALM      30.03R
MARION*        PTCLDY    64  60  86 W6        30.09R
HILLSVILLE*    PTCLDY    65  58  77 SW8       30.05S
RICHLANDS*     FAIR      67  61  80 CALM      30.06S
WISE*          MOCLDY    70  61  73 CALM      30.07S
ABINGDON*      CLOUDY    67  61  83 CALM      30.05S
$$

MDZ021>025-VAZ099-100-041000-
SOUTHERN MARYLAND AND THE DELMARVA PENINSULA

CITY           SKY/WX    TMP DP  RH WIND       PRES   REMARKS
PATUXENT RIVER PTCLDY    77  71  82 SW10      29.88R
BAY BRIDGE APT   N/A     79  68  69 SW7       29.87R
LEONARDTOWN    PTCLDY    77  70  78 SW6       29.91R
DOVER          PTCLDY    77  77 100 SW7       29.86R
GEORGETOWN     CLEAR     75  74  96 SW5       29.89R
EASTON         CLEAR     80  74  82 SW7       29.91R
CAMBRIDGE      CLEAR     79  72  78 S5        29.88R
SALISBURY      CLEAR     78  75  90 SW10      29.89R
OCEAN CITY     CLEAR     79  74  84 SW14      29.89R
WALLOPS ISLAND PTCLDY    77  75  93 SW9       29.91R
ACCOMACK*      PTCLDY    79  79 100 SW8G16    29.92R
$$

NCZ012>017-030>032-041000-
NORTH CENTRAL AND EASTERN NORTH CAROLINA

CITY           SKY/WX    TMP DP  RH WIND       PRES   REMARKS
ROANOKE RAPIDS FAIR      72  72 100 S5        29.96R
RALEIGH        PTCLDY    74  71  91 SW6       29.98R
ELIZABETH CITY MOCLDY    79  76  90 SW14G22   29.96R
AHOSKIE*       CLEAR     72  70  95 CALM      29.97R
EDENTON*         N/A     78  76  92 SW10G16   29.96S
CURRITUCK*     MOCLDY    79  74  86 S5        29.96S
KILL DEVIL HLS PTCLDY    79  76  90 SW7       29.96S
MANTEO         CLEAR     79  77  93 SW15      29.98R
CAPE HATTERAS  CLOUDY    79  75  87 SW10      29.99R
TARBORO*         N/A     74  72  93 CALM      29.98R
GOLDSBORO      MOCLDY    75  75  98 E2        29.95R
WASHINGTON     CLOUDY    76  75  96 NW3       29.98R
GREENVILLE     CLOUDY    77  75  94 SW8       29.99R
NEW BERN       MOCLDY    79  76  90 S5        29.99R
WILMINGTON     MOCLDY    80  76  87 S6        29.95F
$$

VAZ048-041000-
ELSEWHERE

CITY           SKY/WX    TMP DP  RH WIND       PRES   REMARKS
HARRISBURG PA  CLOUDY    71  65  81 SW6       29.86R
BALTIMORE      CLOUDY    73  66  78 CALM      29.89R THUNDER
ANNAPOLIS      MOCLDY    77  67  71 W7        29.86R
ANDREWS AFB    CLOUDY    75  69  79 W5        29.88R
PHILADELPHIA   CLOUDY    76  64  66 CALM      29.88R
HENDERSON NC   CLEAR     73  68  86 SW8       29.98R
GREENSBORO     PTCLDY    72  69  90 SW5       29.97S
ROCKY MOUNT    CLEAR     74  72  93 S5        29.97R
$$

VAZ100-041000-
MARINE

STATION/POSITION TIME  TEMP    WIND        PRES    WAVE   SWELL
                       AIR SEA DIR/SP/G            HT/PER HT/PER
                 (UTC) (F)     (DEG/KT/KT) (MB)    (FT/S) (FT/S)
BRANDYWINE LGT   0800   77 75  220/ 15/ 17 1011.0R
CAPE MAY NJ      0800   76 76  190/  9/ 14 1010.6S
LEWES DE         0800   78 73  220/  7/ 10 1010.9R
15NM E FENWICK I 0850   78 79  210/ 21/ 25 1011.9R   6/ 7   2/11
OCEAN-CITY-INLET 0800   76 76  210/ 12/ 15 1011.1R
WACHAPREAGUE VA  0800   78 82  220/  7/ 10 1012.8R
THOMAS POINT MD  0800   78 81  230/ 14     1011.4
GOOSES REEF MD   0900   81 82  250/ 12/ 16 1012.4R
COVE POINT MD    0800   80     250/ 10/ 14 1011.9R
SOLOMONS ISLAND  0800      83                N/A
BISHOPS HEAD MD  0800   81 81  220/ 19/ 22 1010.4R
PINEY POINT MD   0800          240/ 11/ 16   N/A
POTOMAC MD       0900   80 82  230/ 17/ 21 1011.0R   2/ 3
CAMBRIDGE MD     0800   80 84  210/  5/  6 1010.4R
LEWISETTA VA     0800   79 84  230/ 13/ 17 1011.4R
RAPPAHANNOCK LGT 0800          210/ 23/ 26 1012.9R
STINGRAY PT      0900   79 83  230/ 17/ 21 1012.9R   2/ 3
YORK RVR RNG VA  0800   78     230/ 20/ 23 1012.2R
YORKTOWN VA      0800   77 83  220/ 14/ 18 1012.6R
JAMESTOWN VA     0900   76 85  220/  8/ 14   N/A
DOMINION TERM VA 0800   78     230/ 19/ 23 1012.8R
KIPTOPEKE VA     0800      82  230/ 18/ 24   N/A
CHES BAY BRIDGE  0800   78 79  210/ 19/ 24 1012.6R
CAPE HENRY VA    0800   77     210/ 11/ 16   N/A
CHESAPEAKE LGHT  0800   78     210/ 23/ 25 1013.6F
WILLOUBY STN VA  0800   78     230/ 19/ 21 1014.0R
CAPE HENRY BUOY  0828      78                N/A     4/ 6   2/12
1ST LANDING BUOY 0900      78              1013.8R   1/ 3
CAPE CHARLES BUO 0826      72                N/A     4/ 5   2/12
OFFSHORE WE BUOY 0811      82                N/A     5/ 7   2/ 7
64NM E OF VA BCH 0850   80 81  220/ 17/ 21 1013.8R   7/ 6   2/11
DUCK PIER NC     0800   79 63  200/ 13/ 15 1013.7F
44100 DUCK FRF   0824      78                N/A     3/ 6
44056 DUCK FRF   0811      68                N/A     2/ 6
OREGON INLET NC  0800   80 80  200/ 15/ 18 1014.8F
HATTERAS NC      0800   79 79  190/  4/  7 1014.9F
DIAMOND SHLS NC  0850   82 84  190/ 17/ 21 1015.4F   5/ 5   2/11


USA.gov is the U.S. government's official web portal to all federal, state and local government web resources and services.